• In Hungary
  • List of Countries
  • For 7 days
  • Water Temperature
  • Satellite Maps
  • Weather Map
  • News
  • Weather Widgets
  • user-avatar
    Login

    Hourly Weather Mingora

    Today, 20 August, Sunday

    Time Temperature Precipitation Wind Pressure Humidity
    00:00 +26°C° 0 mm 2 mps 673 mmHg 61%
    01:00 +25°C° 0 mm 2 mps 673 mmHg 60%
    02:00 +25°C° 0 mm 2 mps 673 mmHg 60%
    03:00 +25°C° 0.1 mm 2 mps 672 mmHg 60%
    04:00 +24°C° 0.1 mm 2 mps 672 mmHg 60%
    05:00 +24°C° 0 mm 2 mps 673 mmHg 59%
    06:00 +26°C° 0 mm 2 mps 673 mmHg 55%
    07:00 +27°C° 0 mm 1 mps 674 mmHg 51%
    08:00 +29°C° 0 mm 1 mps 674 mmHg 47%
    09:00 +30°C° 0 mm 1 mps 674 mmHg 46%
    10:00 +31°C° 0 mm 2 mps 674 mmHg 45%
    11:00 +32°C° 0 mm 2 mps 674 mmHg 43%
    12:00 +32°C° 0 mm 2 mps 674 mmHg 43%
    13:00 +34°C° 0 mm 3 mps 673 mmHg 42%
    14:00 +34°C° 0 mm 3 mps 673 mmHg 42%
    15:00 +34°C° 0 mm 3 mps 672 mmHg 43%
    16:00 +34°C° 0 mm 2 mps 672 mmHg 45%
    17:00 +32°C° 0 mm 2 mps 672 mmHg 46%
    18:00 +30°C° 0 mm 1 mps 671 mmHg 53%
    19:00 +28°C° 0 mm 1 mps 671 mmHg 59%
    20:00 +24°C° 0 mm 0 mps 671 mmHg 66%
    21:00 +26°C° 0 mm 1 mps 671 mmHg 67%
    22:00 +25°C° 0 mm 1 mps 671 mmHg 67%
    23:00 +25°C° 0 mm 1 mps 672 mmHg 68%

    Tomorrow, 21 August, Monday

    Time Temperature Precipitation Wind Pressure Humidity
    00:00 +25°C° 0 mm 1 mps 671 mmHg 68%
    01:00 +24°C° 0 mm 2 mps 671 mmHg 69%
    02:00 +24°C° 0 mm 2 mps 671 mmHg 70%
    03:00 +24°C° 0 mm 2 mps 671 mmHg 70%
    04:00 +24°C° 0 mm 2 mps 671 mmHg 70%
    05:00 +24°C° 0 mm 2 mps 671 mmHg 69%
    06:00 +25°C° 0 mm 1 mps 672 mmHg 65%
    07:00 +27°C° 0 mm 1 mps 672 mmHg 61%
    08:00 +28°C° 0 mm 1 mps 673 mmHg 57%
    09:00 +29°C° 0.1 mm 1 mps 673 mmHg 53%
    10:00 +30°C° 0.1 mm 2 mps 673 mmHg 49%
    11:00 +32°C° 0.1 mm 2 mps 673 mmHg 46%
    12:00 +32°C° 0 mm 2 mps 672 mmHg 44%
    13:00 +34°C° 0 mm 3 mps 672 mmHg 43%
    14:00 +34°C° 0 mm 3 mps 672 mmHg 42%
    15:00 +34°C° 0 mm 3 mps 671 mmHg 43%
    16:00 +34°C° 0 mm 2 mps 671 mmHg 44%
    17:00 +32°C° 0 mm 2 mps 670 mmHg 45%
    18:00 +30°C° 0 mm 2 mps 670 mmHg 52%
    19:00 +29°C° 0 mm 1 mps 670 mmHg 58%
    20:00 +27°C° 0 mm 1 mps 670 mmHg 64%
    21:00 +26°C° 0 mm 1 mps 670 mmHg 65%
    22:00 +26°C° 0 mm 2 mps 670 mmHg 66%
    23:00 +25°C° 0 mm 2 mps 670 mmHg 66%

    Day after tomorrow, 22 August, Tuesday

    Time Temperature Precipitation Wind Pressure Humidity
    00:00 +25°C° 0.1 mm 2 mps 670 mmHg 67%
    01:00 +25°C° 0.1 mm 2 mps 670 mmHg 67%
    02:00 +24°C° 0.1 mm 2 mps 670 mmHg 68%
    03:00 +24°C° 0.2 mm 2 mps 671 mmHg 67%
    04:00 +24°C° 0.2 mm 2 mps 671 mmHg 67%
    05:00 +24°C° 0.2 mm 2 mps 671 mmHg 66%
    06:00 +26°C° 0 mm 2 mps 671 mmHg 61%
    07:00 +27°C° 0 mm 1 mps 672 mmHg 56%
    08:00 +29°C° 0 mm 1 mps 673 mmHg 51%
    09:00 +30°C° 0 mm 1 mps 673 mmHg 49%
    10:00 +31°C° 0 mm 2 mps 673 mmHg 46%
    11:00 +32°C° 0 mm 2 mps 673 mmHg 43%
    12:00 +34°C° 0 mm 2 mps 672 mmHg 43%
    13:00 +34°C° 0 mm 3 mps 672 mmHg 42%
    14:00 +35°C° 0 mm 3 mps 672 mmHg 41%
    15:00 +34°C° 0 mm 2 mps 671 mmHg 42%
    16:00 +34°C° 0 mm 2 mps 671 mmHg 44%
    17:00 +34°C° 0 mm 2 mps 671 mmHg 45%
    18:00 +31°C° 0 mm 2 mps 671 mmHg 52%
    19:00 +29°C° 0 mm 1 mps 671 mmHg 58%
    20:00 +27°C° 0 mm 1 mps 671 mmHg 64%
    21:00 +27°C° 0.1 mm 1 mps 671 mmHg 65%
    22:00 +26°C° 0.1 mm 2 mps 671 mmHg 66%
    23:00 +26°C° 0.1 mm 2 mps 672 mmHg 67%

    23 August, Wednesday

    Time Temperature Precipitation Wind Pressure Humidity
    00:00 +25°C° 0.2 mm 2 mps 671 mmHg 68%
    01:00 +25°C° 0.2 mm 2 mps 671 mmHg 68%
    02:00 +24°C° 0.2 mm 2 mps 671 mmHg 69%
    03:00 +24°C° 0.1 mm 2 mps 671 mmHg 68%
    04:00 +24°C° 0.1 mm 2 mps 671 mmHg 67%
    05:00 +24°C° 0.1 mm 2 mps 671 mmHg 66%
    06:00 +26°C° 0 mm 2 mps 672 mmHg 61%
    07:00 +27°C° 0 mm 1 mps 673 mmHg 57%
    08:00 +29°C° 0 mm 1 mps 673 mmHg 52%
    09:00 +30°C° 0 mm 1 mps 673 mmHg 49%
    10:00 +31°C° 0 mm 2 mps 673 mmHg 47%
    11:00 +34°C° 0 mm 2 mps 674 mmHg 44%
    12:00 +34°C° 0 mm 2 mps 673 mmHg 43%
    13:00 +35°C° 0 mm 3 mps 673 mmHg 42%
    14:00 +35°C° 0 mm 3 mps 672 mmHg 41%
    15:00 +35°C° 0 mm 3 mps 672 mmHg 43%
    16:00 +34°C° 0 mm 2 mps 672 mmHg 45%
    17:00 +34°C° 0 mm 2 mps 672 mmHg 46%
    18:00 +31°C° 0 mm 2 mps 672 mmHg 53%
    19:00 +29°C° 0 mm 1 mps 672 mmHg 60%
    20:00 +27°C° 0 mm 1 mps 672 mmHg 67%
    21:00 +27°C° 0.1 mm 1 mps 672 mmHg 68%
    22:00 +26°C° 0.1 mm 2 mps 672 mmHg 69%
    23:00 +26°C° 0.1 mm 2 mps 672 mmHg 70%

    24 August, Thursday

    Time Temperature Precipitation Wind Pressure Humidity
    00:00 +26°C° 0.1 mm 2 mps 672 mmHg 70%
    01:00 +25°C° 0.1 mm 2 mps 671 mmHg 70%
    02:00 +25°C° 0.1 mm 2 mps 671 mmHg 70%
    03:00 +25°C° 0 mm 2 mps 671 mmHg 69%
    04:00 +25°C° 0 mm 2 mps 671 mmHg 68%
    05:00 +24°C° 0 mm 2 mps 671 mmHg 67%
    06:00 +26°C° 0 mm 2 mps 672 mmHg 62%
    07:00 +27°C° 0 mm 1 mps 672 mmHg 58%
    08:00 +29°C° 0 mm 1 mps 673 mmHg 53%
    09:00 +30°C° 0.1 mm 1 mps 673 mmHg 50%
    10:00 +31°C° 0.1 mm 2 mps 673 mmHg 48%
    11:00 +34°C° 0.1 mm 2 mps 673 mmHg 45%
    12:00 +34°C° 0.1 mm 2 mps 673 mmHg 44%
    13:00 +35°C° 0.1 mm 2 mps 672 mmHg 43%
    14:00 +35°C° 0.1 mm 3 mps 672 mmHg 43%
    15:00 +35°C° 0.1 mm 2 mps 672 mmHg 44%
    16:00 +34°C° 0.1 mm 2 mps 671 mmHg 46%
    17:00 +34°C° 0.1 mm 2 mps 671 mmHg 48%
    18:00 +31°C° 0.3 mm 2 mps 671 mmHg 55%
    19:00 +29°C° 0.3 mm 2 mps 671 mmHg 62%
    20:00 +27°C° 0.3 mm 1 mps 671 mmHg 69%
    21:00 +26°C° 0.6 mm 2 mps 671 mmHg 70%
    22:00 +26°C° 0.6 mm 2 mps 671 mmHg 71%
    23:00 +25°C° 0.6 mm 2 mps 671 mmHg 73%

    25 August, Friday

    Time Temperature Precipitation Wind Pressure Humidity
    00:00 +24°C° 0.4 mm 2 mps 671 mmHg 72%
    01:00 +24°C° 0.4 mm 2 mps 670 mmHg 71%
    02:00 +24°C° 0.4 mm 2 mps 670 mmHg 70%
    03:00 +24°C° 0.6 mm 2 mps 670 mmHg 69%
    04:00 +23°C° 0.6 mm 2 mps 670 mmHg 68%
    05:00 +23°C° 0.6 mm 2 mps 670 mmHg 67%
    06:00 +25°C° 0.2 mm 2 mps 670 mmHg 61%
    07:00 +27°C° 0.2 mm 1 mps 671 mmHg 55%
    08:00 +28°C° 0.2 mm 1 mps 672 mmHg 50%
    09:00 +30°C° 0 mm 1 mps 672 mmHg 47%
    10:00 +31°C° 0 mm 2 mps 672 mmHg 45%
    11:00 +33°C° 0 mm 3 mps 672 mmHg 42%
    12:00 +33°C° 0 mm 3 mps 672 mmHg 42%
    13:00 +34°C° 0 mm 3 mps 671 mmHg 42%
    14:00 +34°C° 0 mm 3 mps 671 mmHg 41%
    15:00 +34°C° 0 mm 3 mps 671 mmHg 43%
    16:00 +32°C° 0 mm 2 mps 670 mmHg 45%
    17:00 +32°C° 0 mm 2 mps 670 mmHg 47%
    18:00 +30°C° 0.2 mm 2 mps 670 mmHg 54%
    19:00 +27°C° 0.2 mm 2 mps 669 mmHg 62%
    20:00 +25°C° 0.2 mm 1 mps 669 mmHg 69%
    21:00 +25°C° 0.1 mm 2 mps 669 mmHg 67%
    22:00 +25°C° 0.1 mm 2 mps 669 mmHg 65%
    23:00 +25°C° 0.1 mm 2 mps 669 mmHg 63%
    Show more